Weather reports worldwide

Advertisment
Coningsby, United Kingdom (3391): temperature & dewpoint: 13.01.2019 09:00:00 - 19.01.2019 09:00:00 (GMT)Coningsby, United Kingdom (3391): temperature -20cm & temperature -100cm: 13.01.2019 09:00:00 - 19.01.2019 09:00:00 (GMT)Coningsby, United Kingdom (3391): wind speed & gusts: 13.01.2019 09:00:00 - 19.01.2019 09:00:00 (GMT)Coningsby, United Kingdom (3391): wind direction: 13.01.2019 09:00:00 - 19.01.2019 09:00:00 (GMT)Coningsby, United Kingdom (3391): reduced air pressure: 13.01.2019 09:00:00 - 19.01.2019 09:00:00 (GMT)Coningsby, United Kingdom (3391): visibility: 13.01.2019 09:00:00 - 19.01.2019 09:00:00 (GMT)Coningsby, United Kingdom (3391): precipitation: 13.01.2019 09:00:00 - 19.01.2019 09:00:00 (GMT)
Date & Time tt [°C] td [°C] tt -20cm [°C] tt -100cm [°C] ff [km/h] ff [kn] fx [km/h] fx [kn] dd ppp [hPa] vv [km] rr [mm]
19.01.2019 09:00:00 1,0 -0,1 - - 13 7 - - SE 1010,6 10 0,0
19.01.2019 08:00:00 0,4 -0,7 - - 15 8 - - SSE 1010,3 10 0,0
19.01.2019 07:00:00 0,7 -0,4 - - 15 8 - - SSE 1010,2 10 0,0
19.01.2019 06:00:00 0,8 -0,3 - - 15 8 - - SSE 1010,2 10 0,0
19.01.2019 05:00:00 1,2 -0,3 - - 16 9 - - SE 1010,5 10 0,0
19.01.2019 04:00:00 1,8 -0,1 - - 15 8 - - SE 1010,8 10 0,0
19.01.2019 03:00:00 2,0 0,0 - - 16 9 - - SSE 1011,1 10 0,0
19.01.2019 02:00:00 2,4 -0,1 - - 16 9 - - SSE 1011,4 10 0,0
19.01.2019 01:00:00 2,5 -0,2 - - 18 10 - - SSE 1011,7 10 0,0
19.01.2019 00:00:00 2,8 -0,1 - - 16 9 - - SSE 1012,1 30 0,0
18.01.2019 23:00:00 2,8 0,0 - - 16 9 - - SSE 1012,4 30 0,0
18.01.2019 22:00:00 3,0 -0,1 - - 21 11 - - SSE 1012,6 10 0,0
18.01.2019 21:00:00 2,9 0,0 - - 21 11 - - SSE 1012,7 10 0,0
18.01.2019 20:00:00 3,1 0,4 - - 18 10 - - SSE 1012,9 10 0,0
18.01.2019 19:00:00 2,7 0,5 - - 13 7 - - SE 1013,1 25 0,0
18.01.2019 18:00:00 3,0 0,6 - - 16 9 - - SE 1013,2 25 0,0
18.01.2019 17:00:00 2,6 0,2 - - 16 9 - - SE 1013,6 25 0,0
18.01.2019 16:00:00 2,6 -0,2 - - 15 8 - - SE 1014,0 10 0,0
18.01.2019 15:00:00 2,6 -0,6 - - 11 6 - - SE 1014,5 10 0,0
18.01.2019 14:00:00 2,5 -0,8 - - 9 5 - - SE 1015,1 25 0,0
18.01.2019 13:00:00 2,0 -0,8 - - 9 5 - - SSE 1015,7 10 0,0
18.01.2019 12:00:00 0,9 -1,2 - - 11 6 - - SE 1016,5 10 0,0
18.01.2019 11:00:00 0,2 -1,5 - - 11 6 - - SE 1017,2 10 0,0
18.01.2019 10:00:00 -0,7 -1,9 - - 5 3 - - SE 1017,2 10 0,0
18.01.2019 09:00:00 -2,2 -3,0 4,9 8,2 5 3 - - ESE 1017,3 10 0,0
18.01.2019 08:00:00 -2,8 -3,7 - - 4 2 - - SE 1017,1 10 0,0
18.01.2019 07:00:00 -2,8 -3,5 - - 4 2 - - SSE 1017,2 10 0,0
18.01.2019 06:00:00 -3,1 -3,9 - - 5 3 - - S 1017,3 10 0,0
18.01.2019 05:00:00 -2,7 -3,5 - - 5 3 - - SSW 1017,5 10 0,0
18.01.2019 04:00:00 -2,9 -4,1 - - 4 2 - - S 1017,5 25 0,0
18.01.2019 03:00:00 -1,0 -3,1 - - 4 2 - - NNW 1018,0 10 0,0
18.01.2019 02:00:00 -0,3 -2,8 - - 9 5 - - WNW 1018,3 10 0,0
18.01.2019 01:00:00 -0,3 -2,9 - - 9 5 - - NW 1018,1 10 0,0
18.01.2019 00:00:00 -0,1 -2,9 - - 9 5 - - NW 1018,2 10 0,0
17.01.2019 23:00:00 0,3 -2,7 - - 13 7 - - NW 1018,1 10 0,0
17.01.2019 22:00:00 0,6 -2,8 - - 15 8 - - NW 1017,5 10 0,0
17.01.2019 21:00:00 1,1 -2,8 - - 16 9 - - WNW 1017,2 35 0,0
17.01.2019 20:00:00 1,3 -2,6 - - 15 8 - - WNW 1016,8 35 0,0
17.01.2019 19:00:00 1,7 -2,4 - - 18 10 - - WNW 1016,4 10 0,0
17.01.2019 18:00:00 2,3 -2,4 - - 18 10 - - WNW 1015,6 40 0,0
17.01.2019 17:00:00 2,6 -2,0 - - 22 12 - - NW 1014,9 10 0,0
17.01.2019 16:00:00 3,6 -1,5 - - 26 14 46 25 NW 1014,0 40 0,0
17.01.2019 15:00:00 4,0 -1,1 - - 35 19 48 26 NNW 1012,8 10 0,0
17.01.2019 14:00:00 4,4 -1,7 - - 29 16 50 27 NW 1011,6 10 0,0
17.01.2019 13:00:00 4,1 -2,3 - - 29 16 52 28 NW 1010,9 50 0,0
17.01.2019 12:00:00 3,4 -3,4 - - 35 19 52 28 NW 1010,2 10 0,0
17.01.2019 11:00:00 2,4 -3,6 - - 34 18 46 25 NW 1009,7 10 0,0
17.01.2019 10:00:00 1,7 -4,0 - - 26 14 - - WNW 1008,8 50 0,0
17.01.2019 09:00:00 1,1 -4,0 5,7 8,4 26 14 - - WNW 1008,1 10 0,0
17.01.2019 08:00:00 0,9 -3,5 - - 28 15 - - NW 1006,9 40 0,0
17.01.2019 07:00:00 1,6 -1,8 - - 26 14 - - NW 1005,8 10 0,0
17.01.2019 06:00:00 1,7 -0,3 - - 34 18 46 25 NNW 1005,0 5 0,0
17.01.2019 05:00:00 2,8 0,9 - - 22 12 - - NW 1003,4 10 0,0
17.01.2019 04:00:00 2,2 0,9 - - 15 8 - - W 1002,4 10 0,0
17.01.2019 03:00:00 2,5 1,2 - - 16 9 - - WNW 1001,9 10 0,0
17.01.2019 02:00:00 3,1 1,6 - - 15 8 - - W 1001,3 10 0,0
17.01.2019 01:00:00 3,6 2,0 - - 16 9 - - W 1001,1 10 0,0
17.01.2019 00:00:00 3,3 2,0 - - 18 10 - - WSW 1000,9 10 0,0
16.01.2019 23:00:00 2,1 1,5 - - 15 8 - - WSW 1000,8 10 0,0
16.01.2019 22:00:00 2,3 1,7 - - 21 11 - - WSW 1000,6 10 0,0
16.01.2019 21:00:00 1,8 1,0 - - 15 8 - - WSW 1000,4 10 0,0
16.01.2019 20:00:00 4,0 2,7 - - 16 9 - - W 1000,3 10 0,0
16.01.2019 19:00:00 3,8 2,9 - - 16 9 - - WSW 1000,0 10 0,0
16.01.2019 18:00:00 4,3 3,4 - - 13 7 - - SW 999,8 10 0,0
16.01.2019 17:00:00 4,7 3,5 - - 15 8 - - WSW 999,9 10 0,0
16.01.2019 16:00:00 5,4 3,5 - - 15 8 - - WSW 1000,0 10 0,4
16.01.2019 15:00:00 5,8 3,7 - - 26 14 - - WNW 1000,2 10 1,4
16.01.2019 14:00:00 6,9 5,8 - - 22 12 - - WNW 999,7 6 0,2
16.01.2019 13:00:00 7,5 6,5 - - 18 10 - - WNW 999,8 10 0,2
16.01.2019 12:00:00 9,5 6,8 - - 29 16 - - SW 1000,0 10 0,0
16.01.2019 11:00:00 9,3 7,4 - - 26 14 - - SSW 1000,8 10 0,0
16.01.2019 10:00:00 8,4 6,7 - - 22 12 - - SSW 1001,5 35 0,0
16.01.2019 09:00:00 7,6 6,5 6,0 8,4 22 12 - - SSW 1002,2 10 0,0
16.01.2019 08:00:00 8,1 6,8 - - 26 14 - - SSW 1002,5 10 0,0
16.01.2019 07:00:00 8,5 7,1 - - 24 13 - - SW 1003,2 10 0,0
16.01.2019 06:00:00 8,4 7,0 - - 26 14 - - SW 1003,8 10 0,0
16.01.2019 05:00:00 8,8 6,5 - - 24 13 - - SW 1004,5 10 0,0
16.01.2019 04:00:00 8,2 6,0 - - 22 12 - - SSW 1005,4 10 0,0
16.01.2019 03:00:00 8,1 6,1 - - 24 13 - - SW 1006,4 10 0,0
16.01.2019 02:00:00 7,9 6,1 - - 24 13 - - SW 1007,4 10 0,0
16.01.2019 01:00:00 7,8 6,1 - - 24 13 - - SW 1008,2 10 0,0
16.01.2019 00:00:00 7,7 5,8 - - 15 8 - - SW 1009,2 28 0,0
15.01.2019 23:00:00 7,8 5,5 - - 18 10 - - SSW 1010,0 10 0,0
15.01.2019 22:00:00 7,4 5,2 - - 22 12 - - SW 1010,8 10 0,0
15.01.2019 21:00:00 7,5 5,3 - - 16 9 - - SSW 1011,3 10 0,0
15.01.2019 20:00:00 7,7 5,6 - - 16 9 - - SW 1011,9 10 0,0
15.01.2019 19:00:00 7,9 5,8 - - 13 7 - - SW 1012,5 40 0,0
15.01.2019 18:00:00 8,1 5,6 - - 13 7 - - SW 1012,9 40 0,0
15.01.2019 17:00:00 8,6 5,1 - - 18 10 - - WSW 1013,3 10 0,0
15.01.2019 16:00:00 9,1 5,3 - - 21 11 - - WSW 1013,6 10 0,0
15.01.2019 15:00:00 9,1 5,7 - - 18 10 - - WSW 1014,0 10 0,0
15.01.2019 14:00:00 9,7 5,4 - - 22 12 - - WSW 1014,4 10 0,0
15.01.2019 13:00:00 10,0 5,3 - - 28 15 - - W 1015,0 45 0,0
15.01.2019 12:00:00 9,5 5,6 - - 29 16 - - W 1015,5 10 0,0
15.01.2019 11:00:00 8,4 5,7 - - 22 12 - - WSW 1016,3 10 0,0
15.01.2019 10:00:00 6,9 5,1 - - 11 6 - - SW 1016,7 10 0,0
15.01.2019 09:00:00 3,2 2,4 5,9 8,4 9 5 - - SSW 1017,0 10 0,0
15.01.2019 08:00:00 5,3 4,1 - - 13 7 - - SW 1016,7 10 0,0
15.01.2019 07:00:00 5,3 4,0 - - 21 11 - - SW 1016,6 10 0,0
15.01.2019 06:00:00 6,2 4,5 - - 21 11 - - WSW 1017,1 10 0,0
15.01.2019 05:00:00 5,4 3,9 - - 15 8 - - SW 1017,5 10 0,0
15.01.2019 04:00:00 4,3 2,7 - - 22 12 - - WSW 1018,1 10 0,0
15.01.2019 03:00:00 4,3 2,6 - - 21 11 - - WSW 1018,5 10 0,0
15.01.2019 02:00:00 3,9 2,2 - - 16 9 - - WSW 1019,0 10 0,0
15.01.2019 01:00:00 3,9 2,3 - - 18 10 - - WSW 1019,5 10 0,0
15.01.2019 00:00:00 3,2 2,5 - - 16 9 - - WSW 1020,1 10 0,0
14.01.2019 23:00:00 5,5 3,5 - - 15 8 - - W 1020,5 10 0,0
14.01.2019 22:00:00 4,6 3,1 - - 18 10 - - W 1020,6 10 0,0
14.01.2019 21:00:00 3,5 2,3 - - 13 7 - - W 1020,7 10 0,0
14.01.2019 20:00:00 3,6 2,2 - - 13 7 - - WSW 1020,7 10 0,0
14.01.2019 19:00:00 4,3 3,0 - - 11 6 - - WSW 1020,9 10 0,0
14.01.2019 18:00:00 3,8 3,1 - - 8 4 - - SW 1021,0 10 0,0
14.01.2019 17:00:00 3,5 1,8 - - 5 3 - - SSW 1020,9 10 0,0
14.01.2019 16:00:00 5,2 3,6 - - 4 2 - - W 1021,0 10 0,0
14.01.2019 15:00:00 7,1 3,8 - - 9 5 - - NW 1020,4 10 0,0
14.01.2019 14:00:00 7,6 4,1 - - 16 9 - - WNW 1020,1 10 0,0
14.01.2019 13:00:00 7,3 4,4 - - 13 7 - - NW 1020,3 10 0,2
14.01.2019 12:00:00 6,5 4,2 - - 11 6 - - NW 1020,1 10 0,0
14.01.2019 11:00:00 6,4 3,7 - - 13 7 - - NW 1020,0 10 0,0
14.01.2019 10:00:00 5,3 3,1 - - 13 7 - - WNW 1019,3 10 0,0
14.01.2019 09:00:00 5,1 3,0 6,2 8,4 13 7 - - WNW 1018,7 10 0,0
14.01.2019 08:00:00 4,5 2,6 - - 9 5 - - WNW 1017,6 10 0,0
14.01.2019 07:00:00 4,4 2,4 - - 13 7 - - NW 1016,8 10 0,0
14.01.2019 06:00:00 4,8 2,6 - - 15 8 - - NW 1016,1 10 0,0
14.01.2019 05:00:00 5,4 2,9 - - 13 7 - - WNW 1015,5 10 0,0
14.01.2019 04:00:00 5,9 3,2 - - 21 11 - - NW 1014,4 10 0,0
14.01.2019 03:00:00 6,1 3,1 - - 18 10 - - WNW 1013,7 30 0,0
14.01.2019 02:00:00 6,5 2,8 - - 22 12 - - WNW 1013,0 10 0,0
14.01.2019 01:00:00 6,8 2,8 - - 22 12 - - WNW 1012,3 10 0,0
14.01.2019 00:00:00 7,3 3,0 - - 29 16 46 25 WNW 1011,7 10 0,0
13.01.2019 23:00:00 7,5 3,5 - - 35 19 48 26 WNW 1010,8 10 0,0
13.01.2019 22:00:00 7,9 3,4 - - 29 16 52 28 WNW 1010,3 10 0,0
13.01.2019 21:00:00 8,1 3,6 - - 29 16 46 25 WNW 1009,9 10 0,0
13.01.2019 20:00:00 8,4 3,4 - - 29 16 50 27 WNW 1009,7 10 0,0
13.01.2019 19:00:00 8,4 3,0 - - 37 20 57 31 WNW 1009,2 10 0,0
13.01.2019 18:00:00 8,9 2,6 - - 35 19 59 32 NW 1008,5 10 0,0
13.01.2019 17:00:00 9,6 4,6 - - 39 21 74 40 NW 1008,0 10 0,0
13.01.2019 16:00:00 10,3 6,6 - - 34 18 55 30 WNW 1007,7 10 0,0
13.01.2019 15:00:00 11,9 5,7 - - 37 20 61 33 WNW 1007,2 10 0,0
13.01.2019 14:00:00 11,8 6,3 - - 37 20 57 31 WNW 1007,6 10 0,0
13.01.2019 13:00:00 11,2 7,7 - - 41 22 57 31 W 1008,0 50 0,0
13.01.2019 12:00:00 9,7 8,1 - - 39 21 59 32 W 1007,5 10 0,0
13.01.2019 11:00:00 9,3 8,1 - - 39 21 52 28 W 1009,1 10 0,0
13.01.2019 10:00:00 9,7 7,1 - - 35 19 57 31 W 1009,6 10 0,0
13.01.2019 09:00:00 9,9 6,8 6,2 8,2 31 17 55 30 WNW 1010,2 10 0,0

tt = temperature
td = dewpoint
tt -20cm = temperature -20cm
tt -100cm = temperature -100cm
ff = wind speed
fx = gusts
dd = wind direction
ppp = reduced air pressure
vv = visibility
rr = precipitation

Next stations